International Skating Union - Official Site

ISU Junior World Cup Speed Skating Inzell
November 25-26, 2017

Draw | Lap Times | Index | World Cup

Referee: Hubert  KAMML  (GER)
Starter: Bartosz  DAWIDOWSKI  (POL)
StartTime: EndTime: Air Temp: Ice Temp: Humidity:
15:59 16:08 12℃ -7.5℃ 53%
Result Mass Start Men
Rankings as of Jan 27 2018 8:22PM
Rank: No.: Name: Nation: Time: Behind: Points:
1 49 Do Hyung  Lee KOR KOR 5:08.84 100
2 11 Zhongyan  Ning CHN CHN 5:09.16 0.32 80
3 2 Gabriel  Odor AUT AUT 5:09.44 0.60 70
4 18 Nil  Llop ESP ESP 5:19.73 10.89 60
5 6 Raman  Makhakhei BLR BLR 5:22.90 14.06 50
6 19 Joonas  Valge EST EST 5:32.15 23.31 44
7 68 Stefan  Nevmerzhitskii RUS RUS 5:09.73 0.89 40
8 70 Andrei  Shabanov RUS RUS 5:10.11 1.27 36
9 37 Enrico  Salino ITA ITA 5:10.26 1.42 32
10 42 Kohki  Takamisawa JPN JPN 5:10.34 1.50 28
11 54 Janno  Botman NED NED 5:10.49 1.65 24
12 64 Jan  Swiatek POL POL 5:10.71 1.87 20
13 50 Hae Young  Lee KOR KOR 5:10.95 2.11 18
14 53 Jort  Boomhouwer NED NED 5:11.28 2.44 16
15 23 Mathieu  Belloir FRA FRA 5:11.36 2.52 14
16 10 Zhibo  Cui CHN CHN 5:11.38 2.54 12
17 57 Hallgeir  Engebråten NOR NOR 5:12.23 3.39 10
18 58 Thomas Lande  Eriksen NOR NOR 5:13.03 4.19 8
19 27 Ole  Jeske GER GER 5:13.30 4.46 6
20 74 Erik  Decker SWE SWE 5:15.05 6.21 5
21 72 Matej  Filip SVK SVK 5:15.29 6.45 4
22 25 Peter  Riches GBR GBR 5:15.41 6.57 3
23 16 Niclas  Mastrup DEN DEN 5:15.57 6.73 2
24 3 Jarno  Schellekens BEL BEL 5:15.76 6.92 1
25 44 Artur  Galiyev KAZ KAZ 5:22.95 14.11 0
26 43 Taishi  Yamamoto JPN JPN 4:17.74 -51.10 0
27 22 Samuli  Suomalainen FIN FIN 4:18.98 -49.86 0
28 13 Sebastien  Brieštansky CZE CZE DQ